PROBA-1 1 26958U 01049B 25343.30722604 .00002344 00000+0 15788-3 0 9999 2 26958 97.9595 340.3599 0057519 45.8838 314.7099 15.06419356315026 CUTE-1 (CO-55) 1 27844U 03031E 25343.28798710 .00000684 00000+0 31596-3 0 9995 2 27844 98.6766 349.2356 0009967 23.1440 337.0186 14.24175028164649 CUBESAT XI-IV (CO-57) 1 27848U 03031J 25342.97166608 .00000468 00000+0 22519-3 0 9994 2 27848 98.6794 348.7884 0010172 40.9807 319.2134 14.23482730164317 APRIZESAT 4 1 35684U 09041D 25343.14439092 .00001597 00000+0 19826-3 0 9999 2 35684 98.1646 49.5304 0042824 216.4521 143.3775 14.83479406883182 APRIZESAT 3 1 35686U 09041F 25343.32713260 .00003190 00000+0 28389-3 0 9998 2 35686 98.1785 122.8862 0062105 334.8262 24.9934 14.95398007887997 PROBA-2 1 36037U 09059B 25343.27338092 .00000681 00000+0 16958-3 0 9999 2 36037 98.2374 164.3053 0013830 143.3222 216.8925 14.54707453853917 APRIZESAT 5 1 37792U 11044E 25343.27097242 .00002437 00000+0 31845-3 0 9997 2 37792 98.2355 266.1243 0051344 253.9471 105.6082 14.80558918770683 APRIZESAT 6 1 37793U 11044F 25343.30116876 .00002025 00000+0 29427-3 0 9993 2 37793 98.2454 244.8541 0042941 335.1140 138.4401 14.76523737769129 PROBA-V 1 39159U 13021A 25342.92550271 .00000136 00000+0 77668-4 0 9998 2 39159 98.3386 326.1544 0003777 346.4222 13.6855 14.23545853654045 APRIZESAT 7 1 39416U 13066A 25343.13142237 .00002058 00000+0 21174-3 0 9991 2 39416 97.7467 294.4632 0037603 120.0581 240.4376 14.90880667652908 APRIZESAT 8 1 39425U 13066K 25343.29865662 .00001858 00000+0 20921-3 0 9998 2 39425 97.8001 288.7581 0046068 188.8639 171.1768 14.87099687651446 BUGSAT-1 (TITA) 1 40014U 14033E 25343.28315582 .00006239 00000+0 35134-3 0 9999 2 40014 98.0566 59.9855 0030578 107.7991 252.6579 15.13224894627092 SAUDISAT 4 1 40016U 14033G 25343.32837703 .00001515 00000+0 20791-3 0 9995 2 40016 97.7297 131.4028 0044487 332.9790 26.9106 14.79160772618006 APRIZESAT 9 1 40018U 14033J 25343.27756052 .00001494 00000+0 22733-3 0 9992 2 40018 97.8790 116.4939 0067895 90.9458 269.9531 14.73878227615587 APRIZESAT 10 1 40019U 14033K 25343.31385515 .00001662 00000+0 26859-3 0 9990 2 40019 97.9407 109.8612 0079664 159.3026 201.1438 14.70586862614341 TECHDEMOSAT-1 (TDS-1) 1 40076U 14037H 25343.29782375 .00012750 00000+0 80188-3 0 9994 2 40076 98.3668 312.4396 0006619 172.2599 187.8731 15.09363470619542 TECHNOSAT 1 42829U 17042E 25343.00120240 .00005789 00000+0 42876-3 0 9993 2 42829 97.4039 143.3682 0018632 25.3190 334.8945 15.03362384458116 FLYING LAPTOP 1 42831U 17042G 25343.33296383 .00003680 00000+0 30081-3 0 9997 2 42831 97.4226 142.1091 0015083 60.0373 300.2347 14.99870006457980 HAWK-A 1 43765U 18099H 25343.10271465 .00010856 00000+0 47710-3 0 9996 2 43765 97.4211 32.9033 0036100 232.0158 127.7816 15.21483956384160 HAWK-B 1 43794U 18099AN 25343.10936696 .00008710 00000+0 40226-3 0 9993 2 43794 97.4257 32.6884 0032688 248.7143 111.0601 15.19958919384136 HAWK-C 1 43799U 18099AT 25343.14799453 .00011858 00000+0 47408-3 0 9996 2 43799 97.4189 33.0014 0042625 235.5348 124.1860 15.24407547384929 SALSAT 1 46495U 20068K 25343.25363582 .00012140 00000+0 47117-3 0 9995 2 46495 97.8782 330.3375 0008731 244.1124 115.9213 15.26229409286358 HAWK-2C 1 47502U 21006CT 25343.10874193 .00009137 00000+0 30169-3 0 9998 2 47502 97.2561 26.2881 0008026 150.9016 209.2675 15.31587560270376 HAWK-2A 1 47505U 21006CW 25343.11178089 .00008443 00000+0 27923-3 0 9996 2 47505 97.2606 26.8579 0007508 153.6362 206.5263 15.31562082270372 HAWK-2B 1 47508U 21006CZ 25343.10907761 .00009287 00000+0 30664-3 0 9998 2 47508 97.2477 25.5087 0008235 152.1689 207.9995 15.31583349270371 HAWK-3B 1 48931U 21059BE 25343.24810805 .00034523 00000+0 51808-3 0 9998 2 48931 97.6704 159.1708 0005582 314.1233 45.9560 15.54823644248205 HAWK-3C 1 48948U 21059BX 25343.24788718 .00034862 00000+0 52298-3 0 9993 2 48948 97.6864 164.4722 0006024 315.6289 44.4481 15.54829091248202 HAWK-3A 1 48957U 21059CG 25343.24771373 .00033715 00000+0 50599-3 0 9990 2 48957 97.6792 161.8483 0005686 314.3363 45.7424 15.54826131248202 HAWK-5C 1 52754U 22057Y 25343.20352146 .00021820 00000+0 48887-3 0 9999 2 52754 97.6375 127.0761 0006247 45.0235 315.1517 15.43439433196967 HAWK-5B 1 52756U 22057AA 25343.33301221 .00022147 00000+0 49623-3 0 9995 2 52756 97.6359 125.5700 0006388 40.7779 319.3945 15.43432614196985 HAWK-5A 1 52757U 22057AB 25343.33273346 .00023160 00000+0 51861-3 0 9995 2 52757 97.6368 126.3926 0006583 42.3189 317.8565 15.43440499196986 HAWK-6B 1 55324U 23011A 25343.14287379 .00007202 00000+0 33037-3 0 9993 2 55324 40.5157 18.6228 0002161 181.1878 178.8926 15.20578323158881 HAWK-6C 1 55326U 23011C 25343.07658478 .00007379 00000+0 33822-3 0 9996 2 55326 40.4841 16.1185 0001626 164.1428 195.9431 15.20578200158889 HAWK-6A 1 55327U 23011D 25343.07659694 .00007359 00000+0 33737-3 0 9991 2 55327 40.5002 17.6020 0001458 179.2021 180.8790 15.20578661158885 HAWK-7A 1 56191U 23054P 25343.25265145 .00011847 00000+0 41454-3 0 9994 2 56191 97.2926 230.0884 0007117 18.6305 341.5194 15.29643298148035 HAWK-7B 1 56193U 23054R 25343.12169491 .00003419 00000+0 12162-3 0 9999 2 56193 97.2937 228.1585 0006997 30.5600 329.6048 15.29625897148019 HAWK-7C 1 56200U 23054Y 25343.25231179 .00010578 00000+0 37048-3 0 9999 2 56200 97.2926 229.1077 0006828 23.3081 336.8468 15.29642938148032